Location: Newark
(43.9494°N, 6.8108°E)
Time: 08:50:06
(UTC+00:00)

Envisat - Pass Details

Date: 19 September 2019
Orbit: 764 x 766 km, 98.1° (Epoch: 20 October)

Event Time Altitude Azimuth Distance (km) Brightness Sun altitude
Rises 18:19:14 0° 187° (S) 3,219 6.2 -8.5°
Reaches altitude 10° 18:21:41 10° 196° (SSW) 2,297 5.6 -8.9°
Maximum altitude 18:26:21 37° 263° (W) 1,182 4.7 -9.7°
Drops below altitude 10° 18:31:04 10° 331° (NNW) 2,313 6.1 -10.6°
Sets 18:33:33 0° 339° (NNW) 3,243 6.7 -11.0°
